Change the Weather History Date:

Saturday, October 26, 2013

  Actual Average Record
Temperature  
Mean Temperature 51 °F 63 °F  
Max Temperature 66 °F 75 °F 88 °F (2010)
Min Temperature 36 °F 52 °F 31 °F (1962)
Degree Days  
Heating Degree Days 14 4  
Month to date heating degree days 41 52  
Since 1 July heating degree days 41 55  
Cooling Degree Days 0 2  
Month to date cooling degree days 142 108  
Year to date cooling degree days 2321 2330  
Moisture  
Dew Point 33 °F    
Average Humidity 54    
Maximum Humidity 82    
Minimum Humidity 26    
Precipitation  
Precipitation 0.00 in 0.08 in 1.01 in (1997)
Month to date precipitation 0.45 2.15  
Year to date precipitation 51.99 37.95  
Sea Level Pressure  
Sea Level Pressure 30.26 in    
Wind  
Wind Speed 1 mph (SE)    
Max Wind Speed 8 mph    
Max Gust Speed 12 mph    
Visibility 10 miles    
Events      
T = Trace of Precipitation, MM = Missing Value Source: NWS Daily Summary

Daily Weather History Graph

Daily Weather History Graph

Search for Another Location

Airport or City:

Trip Planner

Search our weather history database for the weather conditions in past years. The results will help you decide how hot, cold, wet, or windy it might be!

Date:

Astronomy

Oct. 26, 2013 Rise Set
Actual Time 7:52 AM EDT 6:54 PM EDT
Civil Twilight 7:27 AM EDT 7:19 PM EDT
Nautical Twilight 6:58 AM EDT 7:48 PM EDT
Astronomical Twilight 6:29 AM EDT 8:17 PM EDT
Moon 12:19 AM EDT (10/26) 2:05 PM EDT (10/26)
Length of Visible Light 11h 52m
Length of Day
11h 02m
Waning Gibbous, 53% of the Moon is Illuminated
Oct 26
Waning Gibbous
Oct 26
Last Quarter
Nov 3
New
Nov 10
First Quarter
Nov 17
Full

Hourly Weather History & Observations

Time (EDT) Temp. Windchill Dew Point Humidity Pressure Visibility Wind Dir Wind Speed Gust Speed Precip Events Conditions
12:51 AM 45.0 °F 43.5 °F 27.0 °F 49% 30.34 in 10.0 mi NNE 3.5 mph - N/A   Clear
1:51 AM 42.1 °F - 30.0 °F 62% 30.32 in 10.0 mi Calm Calm - N/A   Clear
2:51 AM 39.9 °F - 30.0 °F 68% 30.31 in 10.0 mi Calm Calm - N/A   Clear
3:51 AM 41.0 °F - 30.0 °F 65% 30.30 in 10.0 mi Calm Calm - N/A   Clear
4:51 AM 39.0 °F - 30.9 °F 73% 30.29 in 10.0 mi Calm Calm - N/A   Clear
5:51 AM 39.0 °F - 30.9 °F 73% 30.30 in 10.0 mi Calm Calm - N/A   Clear
6:51 AM 37.9 °F - 30.9 °F 76% 30.30 in 10.0 mi Calm Calm - N/A   Clear
7:51 AM 36.0 °F - 30.9 °F 82% 30.31 in 10.0 mi Calm Calm - N/A   Clear
8:51 AM 39.0 °F - 33.1 °F 79% 30.32 in 10.0 mi Calm Calm - N/A   Clear
9:51 AM 48.0 °F - 34.0 °F 58% 30.33 in 10.0 mi ESE 4.6 mph - N/A   Clear
10:51 AM 52.0 °F - 34.0 °F 50% 30.33 in 10.0 mi SE 4.6 mph - N/A   Clear
11:51 AM 57.0 °F - 34.0 °F 42% 30.32 in 10.0 mi Calm Calm - N/A   Clear
12:51 PM 60.1 °F - 33.1 °F 36% 30.29 in 10.0 mi Calm Calm - N/A   Clear
1:51 PM 62.1 °F - 32.0 °F 32% 30.26 in 10.0 mi SSE 3.5 mph - N/A   Clear
2:51 PM 63.0 °F - 28.9 °F 28% 30.23 in 10.0 mi Calm Calm - N/A   Clear
3:51 PM 64.9 °F - 28.9 °F 26% 30.22 in 10.0 mi Variable 4.6 mph - N/A   Clear
4:51 PM 64.9 °F - 30.0 °F 27% 30.21 in 10.0 mi WNW 8.1 mph - N/A   Clear
5:51 PM 64.9 °F - 30.9 °F 28% 30.19 in 10.0 mi Calm Calm - N/A   Clear
6:51 PM 62.1 °F - 34.0 °F 35% 30.19 in 10.0 mi WSW 4.6 mph - N/A   Clear
7:51 PM 60.1 °F - 36.0 °F 41% 30.19 in 10.0 mi Calm Calm - N/A   Clear
8:51 PM 55.0 °F - 39.0 °F 55% 30.19 in 10.0 mi Calm Calm - N/A   Clear
9:51 PM 53.1 °F - 39.9 °F 61% 30.19 in 10.0 mi Calm Calm - N/A   Clear
10:51 PM 51.1 °F - 39.9 °F 66% 30.20 in 10.0 mi Calm Calm - N/A   Clear
11:51 PM 48.0 °F - 41.0 °F 77% 30.19 in 10.0 mi Calm Calm - N/A   Clear